Weather History for Greenville, MS

Change the Weather History Date:

Monday, August 26, 2013

  Actual Average Record
Temperature  
Mean Temperature 80 °F 81 °F  
Max Temperature 92 °F 92 °F 102 °F (1943)
Min Temperature 67 °F 70 °F 57 °F (1958)
Degree Days  
Heating Degree Days 0 0  
Month to date heating degree days 0 0  
Since 1 June heating degree days 0 0  
Since 1 July heating degree days 0 0  
Cooling Degree Days 15 16  
Month to date cooling degree days 427 435  
Year to date cooling degree days 1646 1704  
Since 1 June cooling degree days 1363 1382  
Growing Degree Days 28 (Base 50)    
Moisture  
Dew Point 67 °F    
Average Humidity 72    
Maximum Humidity 100    
Minimum Humidity 44    
Precipitation  
Precipitation 0.00 in 0.10 in 2.20 in (1934)
Month to date precipitation 0.78 1.96  
Year to date precipitation 28.98 34.06  
Sea Level Pressure  
Sea Level Pressure 30.19 in    
Wind  
Wind Speed 5 mph (ESE)    
Max Wind Speed 10 mph    
Max Gust Speed 13 mph    
Visibility 8 miles    
Events      
T = Trace of Precipitation, MM = Missing Value Source: NWS Daily Summary

Daily Weather History Graph

Daily Weather History Graph

Search for Another Location

Airport:

Trip Planner

Search our weather history database for the weather conditions in past years. The results will help you decide how hot, cold, wet, or windy it might be!

Date:

Astronomy

Aug. 26, 2013 Rise Set
Actual Time 6:34 AM CDT 7:36 PM CDT
Civil Twilight 6:08 AM CDT 8:02 PM CDT
Nautical Twilight 5:38 AM CDT 8:32 PM CDT
Astronomical Twilight 5:06 AM CDT 9:03 PM CDT
Moon 11:08 PM CDT (8/26) 12:15 PM CDT (8/26)
Length of Visible Light 13h 53m
Length of Day
13h 02m
Waning Gibbous, 66% of the Moon is Illuminated
Aug 26
Waning Gibbous
Aug 28
Last Quarter
Sep 5
New
Sep 12
First Quarter
Sep 19
Full

Hourly Weather History & Observations

Time (CDT) Temp. Heat Index Dew Point Humidity Pressure Visibility Wind Dir Wind Speed Gust Speed Precip Events Conditions
12:53 AM 73.0 °F - 70.0 °F 90% 30.22 in 10.0 mi SE 3.5 mph - N/A   Clear
1:53 AM 73.0 °F - 69.1 °F 87% 30.20 in 9.0 mi East 4.6 mph - N/A   Clear
2:53 AM 72.0 °F - 69.1 °F 91% 30.20 in 8.0 mi East 3.5 mph - N/A   Clear
3:53 AM 72.0 °F - 69.1 °F 91% 30.21 in 7.0 mi East 4.6 mph - N/A   Clear
4:53 AM 71.1 °F - 69.1 °F 93% 30.21 in 6.0 mi East 3.5 mph - N/A   Clear
5:53 AM 71.1 °F - 69.1 °F 93% 30.21 in 6.0 mi East 3.5 mph - N/A   Clear
6:42 AM 66.2 °F - 66.2 °F 100% 30.20 in 2.0 mi Calm Calm - N/A   Clear
6:53 AM 66.9 °F - 66.0 °F 97% 30.22 in 2.5 mi Calm Calm - N/A   Clear
7:08 AM 69.8 °F - 66.2 °F 88% 30.21 in 3.0 mi Calm Calm - N/A   Clear
7:53 AM 73.9 °F - 70.0 °F 87% 30.24 in 6.0 mi ESE 3.5 mph - N/A   Clear
8:53 AM 78.1 °F - 72.0 °F 81% 30.24 in 8.0 mi SE 5.8 mph - N/A   Clear
9:53 AM 82.0 °F 85.9 °F 70.0 °F 67% 30.25 in 10.0 mi SE 4.6 mph - N/A   Clear
10:53 AM 84.0 °F 87.0 °F 68.0 °F 58% 30.25 in 10.0 mi ESE 6.9 mph - N/A   Clear
11:53 AM 87.1 °F 89.9 °F 66.9 °F 51% 30.25 in 10.0 mi SE 5.8 mph - N/A   Clear
12:53 PM 88.0 °F 90.7 °F 66.9 °F 49% 30.23 in 10.0 mi SE 5.8 mph - N/A   Clear
1:53 PM 90.0 °F 92.8 °F 66.9 °F 46% 30.19 in 10.0 mi South 4.6 mph - N/A   Scattered Clouds
2:53 PM 90.0 °F 91.7 °F 64.9 °F 43% 30.17 in 10.0 mi ESE 5.8 mph - N/A   Scattered Clouds
3:53 PM 90.0 °F 92.4 °F 66.0 °F 45% 30.16 in 10.0 mi SE 4.6 mph - N/A   Mostly Cloudy
4:53 PM 89.1 °F 91.0 °F 64.9 °F 45% 30.14 in 9.0 mi ESE 9.2 mph - N/A   Mostly Cloudy
5:53 PM 88.0 °F 90.3 °F 66.0 °F 48% 30.13 in 10.0 mi ESE 6.9 mph - N/A   Partly Cloudy
6:53 PM 86.0 °F 87.6 °F 64.9 °F 49% 30.12 in 10.0 mi East 5.8 mph - N/A   Clear
7:53 PM 80.1 °F 82.7 °F 68.0 °F 67% 30.13 in 10.0 mi ESE 3.5 mph - N/A   Clear
8:53 PM 80.1 °F 81.9 °F 64.9 °F 60% 30.14 in 10.0 mi East 6.9 mph - N/A   Partly Cloudy
9:53 PM 75.9 °F - 66.0 °F 71% 30.15 in 10.0 mi ESE 4.6 mph - N/A   Clear
10:53 PM 72.0 °F - 66.9 °F 84% 30.15 in 10.0 mi ESE 5.8 mph - N/A   Clear
11:53 PM 72.0 °F - 66.0 °F 81% 30.15 in 10.0 mi SE 4.6 mph - N/A   Clear